Temp
14 15 15 16 16 16 16 17 17 17 17 17 17 17 17 16 16 15 15 15 14 15 15 15 15 15 15 15 15 15 15 16 15 15 15 15 15 15 14 14 14 14 14 14 14 14 14 14 14 14 14 13 13 14 13 13 13 12 11 11 11 12 12 12 12 12 12 12 12 12 12 12 12 12
14 15 15 15 16 16 16 16 17 17 17 17 17 17 17 17 16 15 15 15 15 15 15 15 15 15 15 15 15 15 16 16 15 15 15 15 15 15 14 14 14 14 14 14 14 14 14 14 14 13 13 13 13 13 13 13 13 13 11 11 12 12 13 13 13 13 12 12 12 12 12 12 12 12
14 14 15 15 15 16 16 16 16 16 17 16 16 16 16 17 17 16 16 15 16 16 15 15 15 15 15 15 15 15 16 16 15 15 15 15 15 15 14 14 14 14 14 14 14 14 14 14 13 13 13 13 13 13 13 13 13 13 12 12 12 13 13 13 13 13 12 12 12 12 12 12 12 12
14 15 14 14 15 16 16 16 16 16 16 15 15 15 16 16 17 16 16 15 15 15 16 16 15 15 15 15 15 15 15 15 15 15 15 15 15 14 14 14 14 13 13 14 14 13 14 14 13 13 13 13 13 13 13 13 13 13 13 12 12 13 13 13 13 13 12 12 12 12 12 12 12 12
14 15 15 15 15 15 15 16 16 16 15 15 15 15 16 16 16 16 16 15 14 15 16 16 15 15 15 15 15 15 15 15 15 14 15 15 15 14 14 14 13 13 13 14 14 13 13 13 13 13 13 13 13 13 13 13 13 13 13 13 13 13 12 12 13 13 12 12 12 12 12 12 12 12
15 15 15 15 15 15 15 16 16 16 15 15 15 15 16 16 16 17 16 15 15 15 15 15 15 15 15 15 15 16 16 15 15 14 14 15 14 14 14 14 14 13 13 13 13 13 13 14 13 13 13 13 13 13 13 13 13 13 13 13 13 12 12 12 12 12 12 12 12 12 12 12 12 12
15 15 15 15 15 15 15 15 15 15 15 15 16 16 15 16 17 17 16 16 16 15 15 15 15 15 15 15 15 16 16 16 15 15 15 15 14 14 14 14 14 13 13 13 13 13 13 14 13 13 12 13 13 13 13 13 13 13 13 13 13 12 12 12 12 12 12 12 12 12 11 11 11 11
15 15 15 15 15 15 15 15 14 14 14 15 16 15 14 16 17 16 16 16 16 16 15 15 15 15 15 15 16 16 16 15 15 15 15 15 15 15 14 14 14 14 14 14 13 13 13 13 13 13 13 13 13 13 13 13 13 13 13 13 12 12 12 12 11 12 12 12 12 11 11 11 11 11
14 14 15 16 15 15 14 14 14 14 14 15 16 15 15 16 17 17 16 16 17 16 16 16 16 16 15 16 16 16 16 15 15 15 15 15 15 15 15 14 14 14 14 13 12 12 13 13 13 13 13 13 13 13 13 13 13 13 13 13 12 12 12 11 12 11 11 12 12 11 11 11 11 11
14 15 15 15 15 14 14 14 14 15 15 16 16 16 16 17 16 16 15 16 16 16 16 16 16 15 16 16 16 16 16 16 15 15 15 15 15 15 15 14 14 14 14 14 13 13 13 13 13 13 13 13 13 13 13 13 12 12 13 12 12 12 12 12 12 12 11 11 11 11 11 11 11 11
15 15 15 15 15 15 15 15 15 15 15 16 16 16 17 17 16 15 15 15 15 15 16 16 16 16 16 16 16 16 17 16 16 16 15 14 14 15 15 15 14 14 14 14 14 13 13 14 13 13 13 13 13 13 13 13 12 12 12 12 12 12 12 12 12 12 11 11 11 11 11 11 11 11
15 15 15 14 14 15 15 15 15 15 16 16 16 16 16 16 16 16 16 15 15 15 15 16 16 16 16 17 17 17 17 16 16 16 16 15 14 15 15 15 16 15 14 14 14 13 13 13 13 13 12 12 13 13 13 12 12 12 12 12 12 12 12 12 12 12 11 11 11 11 11 11 11 10
14 14 14 14 14 14 14 15 15 16 16 16 16 16 16 16 16 16 16 15 15 15 15 15 16 16 16 16 17 17 16 16 17 17 17 16 15 15 14 15 16 17 16 15 14 14 14 13 12 12 12 12 12 12 13 13 13 13 13 13 13 13 12 12 12 12 11 11 11 11 11 11 10 10
14 14 14 15 14 14 15 15 15 15 15 16 16 16 16 16 16 16 15 15 15 15 15 15 16 15 15 16 16 16 16 17 17 17 17 16 14 14 14 14 15 16 16 15 14 13 13 13 12 12 12 12 12 12 12 13 13 13 13 13 12 12 12 12 12 11 11 11 11 11 11 10 10 10
14 14 14 14 14 14 15 15 15 15 15 15 16 16 16 15 15 16 15 15 16 16 15 15 15 15 15 15 15 15 15 16 16 17 16 15 14 14 13 13 13 14 14 14 12 12 12 12 12 11 11 12 12 12 12 12 12 12 12 12 12 12 12 12 11 11 11 11 11 10 10 10 10 10
13 13 14 14 14 14 15 15 14 14 14 15 15 15 15 15 15 15 15 15 15 15 15 15 15 15 15 15 15 15 15 15 15 16 16 15 15 14 14 13 13 13 13 13 12 11 11 11 12 12 12 12 12 12 12 12 12 12 12 11 11 11 11 11 11 11 10 10 10 10 9 9 9 9
13 13 13 14 14 14 14 14 14 14 14 14 14 15 15 15 15 15 15 15 15 15 16 15 15 15 15 15 15 15 15 15 15 15 16 16 15 15 14 13 13 13 13 13 12 11 11 11 12 12 11 11 11 11 11 11 11 11 11 11 11 11 11 11 10 10 10 10 9 9 9 9 9 9
13 13 13 13 13 13 13 13 13 13 14 14 14 14 14 14 14 15 15 15 15 15 15 15 14 14 15 15 15 15 15 16 15 15 15 15 15 15 14 13 13 13 13 13 12 10 10 11 12 11 11 10 10 11 10 10 11 10 10 10 10 10 10 10 10 9 9 9 9 9 9 9 8 8
12 13 13 12 12 13 13 13 13 13 13 13 13 13 13 14 14 14 14 14 14 14 14 14 14 14 14 15 15 15 16 16 15 15 14 15 15 14 13 12 13 13 12 13 13 10 9 10 11 10 9 10 10 10 9 9 10 10 10 10 10 10 10 9 9 9 9 9 9 9 9 9 8 8
12 12 12 12 12 13 13 13 13 13 13 13 13 12 12 12 13 12 12 13 13 14 14 14 14 14 14 14 15 15 15 15 15 15 15 14 14 13 12 11 11 12 12 13 13 11 8 10 10 8 8 9 9 9 9 9 9 9 9 9 9 9 9 9 9 9 9 9 9 8 8 8 7 7
10 11 11 12 12 12 12 12 12 13 13 13 12 12 11 11 11 11 11 12 12 12 13 13 13 13 13 14 14 14 14 15 15 15 14 13 13 12 11 10 10 11 11 11 12 11 8 9 9 8 7 8 8 8 8 8 8 8 8 8 9 8 8 8 9 8 8 8 8 8 8 7 7 6
8 9 10 11 11 12 12 12 12 12 12 12 12 12 12 11 11 11 11 11 11 11 12 12 12 12 13 13 13 13 13 13 14 14 14 13 13 13 11 10 10 10 10 11 11 10 8 8 9 8 7 7 7 7 8 7 8 8 8 8 8 8 8 8 8 8 8 8 8 7 7 7 7 6
7 7 8 9 10 11 12 12 12 12 12 12 12 12 12 12 11 11 11 11 11 11 11 11 12 12 12 13 13 12 13 13 13 14 14 13 13 12 11 11 10 10 10 10 11 10 8 8 9 8 7 6 6 6 7 7 7 8 8 8 8 8 8 8 8 8 7 7 7 7 6 6 6 6
7 7 7 7 8 9 10 11 11 11 11 11 11 11 11 10 10 11 11 11 11 11 11 11 11 11 11 12 12 12 12 12 12 12 13 13 13 13 12 11 11 10 10 10 11 10 9 9 9 9 9 8 6 5 6 7 7 8 8 8 8 7 8 8 7 7 7 7 7 6 6 6 6 6
6 6 6 6 7 8 8 9 9 9 10 10 10 10 9 9 10 11 11 11 11 10 10 10 10 10 11 11 11 11 11 11 11 12 12 12 12 12 11 11 10 10 10 10 11 10 9 9 9 9 9 8 7 6 6 6 7 8 8 8 8 7 7 7 7 7 7 7 7 6 6 6 6 5
6 6 6 6 7 7 7 7 8 8 8 9 9 8 9 9 9 10 10 10 10 10 10 10 9 10 10 10 10 10 10 10 10 11 11 11 11 11 11 11 10 10 9 10 11 10 10 10 10 10 9 8 7 6 6 6 7 8 8 8 7 7 7 7 7 7 7 7 6 6 6 6 6 6
6 6 6 6 7 7 7 7 7 7 7 8 8 8 8 9 9 9 9 9 9 9 9 9 9 9 9 9 9 9 9 10 10 10 10 10 10 10 10 10 10 10 10 10 10 11 11 10 10 11 10 8 7 6 6 7 7 7 7 7 7 7 7 7 7 7 7 7 7 6 6 6 6 6
6 6 6 6 6 7 7 7 7 7 7 7 7 7 7 8 8 8 8 8 8 9 8 8 8 8 8 9 9 9 9 9 9 10 9 10 10 10 9 9 10 10 10 10 10 11 11 11 11 11 10 9 8 7 7 7 7 7 7 7 7 7 7 7 7 7 7 7 7 7 7 7 6 6
6 6 6 6 6 6 6 7 7 7 7 7 7 7 7 7 7 7 8 8 8 8 8 8 8 8 8 8 8 9 9 9 9 9 9 9 10 10 10 10 10 10 10 10 10 11 11 11 11 11 10 9 8 8 7 7 7 8 8 8 8 7 7 7 7 7 7 7 7 7 7 7 7 6
6 6 6 6 6 6 6 7 7 6 7 7 7 7 7 7 7 6 7 7 7 7 7 8 8 8 8 8 8 8 9 9 9 9 9 10 10 10 10 9 9 9 9 9 9 10 10 10 10 10 9 9 8 8 8 8 8 8 8 8 7 7 7 7 7 7 7 7 7 7 7 6 6 6
6 6 6 6 6 6 6 7 6 6 6 6 6 6 6 6 6 6 6 6 7 7 7 7 7 8 8 8 8 8 8 8 8 9 9 9 9 9 9 9 9 9 9 9 9 9 9 9 10 10 9 9 8 8 8 8 7 7 7 7 7 6 6 7 7 7 7 6 7 6 6 6 6 6
6 6 6 6 6 6 6 6 6 6 6 6 6 6 6 6 6 6 6 6 6 6 7 7 7 7 8 8 8 8 8 8 8 8 9 9 9 9 9 9 8 8 8 8 8 8 8 9 9 9 9 8 8 8 8 7 7 6 6 6 6 6 6 6 6 6 6 6 6 6 6 6 6 6
6 6 6 6 6 5 5 5 5 5 5 6 6 6 6 6 6 6 6 6 6 6 6 7 7 7 7 8 8 8 8 8 8 8 8 8 8 9 9 9 8 8 8 8 8 8 8 8 8 8 8 8 8 8 7 7 6 6 6 6 6 6 6 6 6 6 6 6 6 6 5 5 5 5
6 5 5 5 5 5 5 5 5 5 5 5 5 5 5 5 6 6 6 6 6 6 6 6 7 7 7 7 8 8 8 8 8 8 8 9 9 9 9 9 9 8 8 8 7 8 8 8 8 8 8 7 7 7 7 6 6 6 6 6 6 5 5 5 5 5 5 5 5 5 5 5 5 5
6 6 5 5 5 5 5 5 5 5 5 5 5 5 5 5 5 6 6 6 6 6 6 6 6 7 7 7 7 8 8 8 8 8 9 9 9 9 9 9 8 8 8 8 8 8 8 8 8 7 7 7 6 6 6 6 6 6 6 5 5 5 5 5 5 5 5 5 5 5 5 5 4 4
5 5 5 5 5 5 5 5 5 5 5 5 5 5 5 5 5 5 5 6 6 6 6 6 6 6 7 7 7 7 7 8 8 8 9 9 9 9 9 8 8 8 8 8 7 7 8 8 8 7 6 5 5 4 5 5 6 6 5 5 5 4 4 4 4 4 4 4 4 4 4 4 4 4
5 5 5 5 4 4 4 4 5 5 5 5 5 5 5 5 5 5 5 5 6 6 6 6 6 6 6 7 7 7 7 7 8 8 8 8 8 8 8 8 7 7 7 7 7 7 7 7 7 7 6 4 3 4 4 5 5 5 5 5 4 4 4 4 4 4 4 4 4 4 4 4 4 4
5 5 5 4 4 4 4 4 4 4 4 4 5 5 5 5 5 5 5 6 6 6 6 6 6 6 6 7 7 7 7 7 7 8 8 8 8 8 8 7 7 7 7 7 7 7 7 7 7 7 6 4 3 3 4 4 4 4 4 5 4 4 4 4 4 4 4 4 4 4 4 4 4 3
5 5 4 4 4 4 4 4 4 4 4 4 4 4 5 5 5 5 5 6 6 6 6 6 6 6 7 7 7 7 7 7 7 7 7 8 7 7 7 7 7 7 7 7 6 7 7 7 7 7 6 5 5 4 4 4 4 4 4 4 4 4 4 4 4 4 4 4 4 4 4 4 4 3
4 4 4 4 4 4 4 4 4 4 4 4 4 4 5 5 5 5 5 6 6 6 6 6 6 6 7 7 7 7 7 7 7 7 7 7 7 7 7 6 6 6 6 6 6 6 6 6 6 6 6 6 5 5 5 4 4 4 4 4 4 4 4 4 4 4 4 4 4 4 4 4 4 3
4 4 4 4 4 3 3 3 4 4 4 4 4 4 5 5 5 5 5 5 5 5 6 6 6 6 6 7 7 7 7 7 6 7 7 7 6 6 6 6 6 6 6 6 6 6 6 6 5 5 5 5 5 5 5 4 4 4 4 4 4 4 4 4 4 4 4 4 4 4 4 4 4 3
4 4 3 3 3 3 3 3 3 3 3 4 4 4 4 5 5 5 5 5 5 5 5 6 6 6 6 7 7 7 6 6 6 6 6 6 6 6 6 6 6 6 6 6 6 6 6 6 6 5 5 5 5 5 4 4 5 4 4 4 4 5 4 4 4 4 4 4 4 4 4 3 3 3
4 4 3 3 3 3 3 3 3 3 3 3 4 4 4 4 4 4 4 5 5 5 5 5 6 6 6 6 6 6 6 6 6 6 6 6 6 6 6 6 6 6 6 6 6 6 6 6 6 6 5 5 5 5 5 5 5 5 4 4 5 5 5 4 4 4 4 4 4 4 4 4 3 3
4 3 3 3 3 3 3 3 3 3 3 3 4 4 4 4 4 4 4 4 4 5 5 5 5 5 6 6 6 6 6 6 6 6 6 6 6 6 5 5 5 6 6 6 6 6 6 6 6 6 5 5 5 5 5 5 5 5 5 5 5 5 4 4 4 4 4 4 4 4 4 4 4 4
4 3 3 3 3 3 3 3 3 3 3 3 3 3 3 3 3 4 4 4 4 4 4 5 5 5 5 6 6 6 6 6 6 6 6 5 5 5 5 5 5 5 5 6 6 6 6 5 5 5 5 5 5 5 5 5 5 5 5 5 5 4 4 4 4 4 4 5 5 4 4 4 4 4
Height
785 787 788 790 791 792 793 794 795 796 797 798 800 801 802 804 809 813 815 815 814 816 819 819 820 823 825 827 829 829 831 832 834 835 836 838 839 840 842 844 846 847 848 850 850 851 852 853 853 854 855 856 858 859 860 862 863 864 866 867 867 868 869 870 871 871 872 873 874 875 875 876 876 877
782 784 786 788 789 790 791 792 793 794 795 797 798 800 801 802 804 806 810 811 811 813 817 818 818 820 823 825 826 827 829 831 832 833 835 836 837 839 841 843 844 846 847 848 849 850 850 851 852 853 854 856 857 858 859 861 862 863 865 866 867 868 869 869 870 871 872 873 873 874 875 876 876 877
780 782 784 786 787 788 789 790 791 792 794 796 797 798 799 801 802 802 805 809 811 812 814 816 817 819 821 823 825 826 828 829 831 832 833 834 836 838 839 841 842 844 845 846 847 848 849 850 851 852 853 855 856 857 858 860 861 862 864 865 866 867 868 869 869 870 871 872 873 874 874 875 876 876
780 781 782 784 785 786 787 788 789 791 793 795 797 797 799 799 800 801 803 807 810 811 813 815 817 818 820 822 823 825 827 828 829 830 831 833 835 836 838 839 840 842 843 845 846 847 848 849 850 851 853 854 855 856 857 859 860 861 863 864 865 867 868 868 869 870 871 871 872 873 873 874 875 875
780 781 781 783 784 785 786 787 789 791 793 796 797 798 798 798 799 801 803 806 808 810 811 814 816 818 818 820 822 823 825 826 828 829 830 832 833 834 836 837 838 840 842 843 845 846 847 848 849 850 852 853 854 855 857 858 859 860 862 863 865 866 867 868 869 870 870 871 872 872 873 874 874 875
779 781 781 782 783 785 787 788 789 791 793 795 796 796 797 797 798 798 800 804 806 808 810 812 814 815 817 818 820 821 822 824 826 827 828 830 832 833 834 835 836 838 839 841 843 844 846 847 848 849 851 852 853 855 856 857 858 859 861 862 864 865 866 867 868 869 870 871 872 872 873 874 874 875
779 780 781 782 783 785 787 787 789 791 792 793 793 795 797 797 796 797 799 801 803 805 807 810 811 813 816 817 818 819 821 822 824 825 827 829 830 832 833 834 834 835 837 840 841 843 845 846 847 848 850 851 853 854 855 857 858 859 860 862 863 865 866 867 868 869 870 871 872 872 873 873 874 875
779 781 781 782 783 784 785 786 789 790 791 791 791 793 795 795 794 796 798 799 800 801 804 807 808 810 813 815 816 818 820 822 823 824 826 828 829 831 832 832 833 834 836 838 840 842 844 845 846 847 849 851 852 854 855 856 857 858 860 861 863 864 865 866 867 869 869 870 871 872 872 873 873 874
781 781 781 782 783 784 785 786 788 788 789 790 791 791 793 793 793 795 797 798 798 799 801 803 806 808 811 814 815 817 819 821 823 824 825 826 828 830 831 831 832 833 835 837 839 841 843 844 845 847 849 851 852 853 854 855 857 858 859 861 862 863 865 866 867 868 869 869 870 871 871 872 873 873
781 781 782 782 783 785 786 786 787 787 787 788 790 790 791 792 792 794 797 798 798 798 799 801 804 807 810 812 814 816 817 819 821 822 823 825 827 828 830 830 831 832 834 836 838 840 842 843 844 846 848 850 851 852 853 855 856 857 859 860 861 863 864 865 866 867 867 868 869 870 870 871 871 872
782 782 782 784 784 784 783 784 786 787 787 787 788 789 790 790 792 794 796 798 800 801 800 800 803 806 808 810 811 814 816 817 819 819 821 824 826 827 828 829 830 832 833 835 837 839 840 842 844 846 848 849 850 851 853 854 855 856 858 859 860 861 863 863 864 865 866 867 867 868 869 869 870 870
783 783 784 785 786 785 783 784 786 786 786 786 788 789 789 789 791 792 794 796 799 802 801 800 801 804 806 808 810 812 814 816 817 817 819 821 824 826 827 828 829 831 833 834 836 838 839 841 843 845 847 848 849 850 851 852 854 855 856 857 859 860 861 862 863 863 864 865 865 866 867 867 868 868
785 786 786 786 787 786 784 784 785 785 786 786 787 788 789 789 790 791 793 794 796 800 802 801 801 803 805 806 808 810 812 813 814 816 817 819 821 824 826 827 829 830 832 833 835 836 838 840 842 844 845 847 848 849 850 851 852 853 855 856 857 858 859 860 861 862 862 863 863 864 865 865 866 866
785 786 785 785 785 784 783 783 784 785 786 786 787 789 789 790 790 791 792 793 794 797 799 799 800 802 805 807 807 809 811 812 812 814 816 817 820 823 825 827 829 829 831 832 834 836 838 839 841 843 844 846 847 848 848 849 851 852 853 854 855 857 858 858 859 860 860 861 861 862 862 863 863 864
785 785 784 783 783 783 783 783 784 784 786 787 788 789 789 789 789 789 791 791 792 794 795 796 797 799 802 805 806 808 809 811 812 813 814 816 818 821 823 826 828 829 830 832 834 836 838 839 841 842 843 844 845 846 847 848 849 850 851 853 854 855 856 857 857 858 858 859 859 860 860 860 861 861
786 786 785 784 784 784 784 784 784 785 786 787 789 789 789 789 788 789 790 791 793 793 793 795 796 798 801 802 804 806 808 810 812 813 814 815 817 819 821 823 826 827 829 831 834 836 837 839 840 841 842 843 844 845 846 846 848 849 850 851 852 853 854 855 856 856 856 857 857 858 858 858 859 859
788 789 788 787 787 787 787 787 786 786 787 789 790 790 789 789 789 790 791 793 795 795 795 796 797 798 802 802 802 804 807 810 813 814 814 815 817 818 820 822 824 825 827 829 832 835 836 837 839 840 841 842 843 844 845 845 846 847 848 850 851 852 853 854 855 855 855 856 856 856 857 857 857 858
791 791 791 791 790 790 790 789 788 788 789 791 791 791 791 791 791 792 792 793 794 795 796 797 798 799 801 801 801 803 806 809 811 812 814 815 816 818 821 823 823 824 826 827 829 834 837 837 838 839 840 842 843 844 844 845 846 847 848 849 850 851 852 853 854 854 855 855 855 855 855 856 856 857
796 795 794 794 793 792 792 791 790 790 793 794 793 793 793 793 792 793 793 793 794 795 796 798 799 799 801 801 802 804 806 807 809 811 813 814 815 817 821 823 824 825 826 827 828 832 836 837 838 839 841 842 843 843 844 845 846 847 849 850 851 851 852 853 853 854 854 854 854 855 855 856 856 857
799 800 799 797 796 795 795 795 795 795 796 795 794 795 795 795 794 795 796 796 796 797 798 800 801 800 801 801 802 804 806 807 808 810 812 813 814 817 820 823 824 824 825 826 827 829 834 836 837 839 841 842 842 844 845 845 846 848 849 850 851 852 852 853 853 854 854 854 854 855 855 856 856 857
802 802 803 802 800 800 799 799 799 798 798 797 797 797 798 798 798 799 800 800 800 800 800 801 802 802 802 803 803 805 806 807 808 809 810 812 814 816 819 821 823 823 824 825 826 827 832 835 836 839 842 843 843 844 846 846 847 848 849 850 851 852 853 853 854 854 854 855 855 855 856 856 857 857
806 805 805 805 804 804 804 803 802 801 801 800 800 800 800 800 801 804 804 803 804 803 802 803 804 803 804 805 804 805 807 808 809 809 810 812 814 815 816 818 821 823 824 825 825 827 831 834 835 838 842 844 845 845 846 847 848 848 849 850 851 852 853 854 854 854 855 855 856 856 856 857 857 858
810 809 809 808 807 807 807 806 805 804 804 803 802 803 802 801 803 807 806 805 805 805 804 805 806 805 805 806 806 807 808 809 810 810 810 812 812 813 815 817 819 822 824 824 824 826 829 833 834 835 839 844 847 847 847 847 848 848 849 850 851 852 853 853 854 855 856 856 856 857 857 857 858 858
814 814 813 812 812 811 809 809 808 808 807 806 806 805 805 805 806 808 807 806 806 806 806 807 808 807 807 808 808 808 809 810 810 811 811 812 813 813 814 816 818 820 822 823 824 825 827 830 832 833 834 838 844 847 848 848 848 849 850 851 851 853 853 854 855 856 857 857 857 857 858 858 858 859
818 818 818 817 816 815 813 812 811 811 810 809 808 808 809 809 809 808 808 808 808 808 809 810 810 810 810 810 810 810 811 811 812 812 812 813 814 814 815 816 817 819 821 822 823 824 826 828 830 832 833 835 839 843 846 848 849 850 851 852 852 853 854 855 856 856 857 857 857 858 858 858 858 858
823 823 822 822 821 819 817 816 815 814 813 812 811 812 812 812 811 810 810 810 810 810 811 812 813 813 812 813 813 813 813 814 814 814 814 814 815 816 817 817 818 819 821 822 823 824 825 827 829 830 832 834 838 841 844 847 849 851 852 852 853 854 855 855 856 856 857 857 858 858 858 858 858 858
828 828 827 826 825 823 821 820 819 817 816 815 815 816 815 814 814 813 813 813 813 813 814 815 815 816 816 816 816 816 816 816 816 816 816 817 818 818 819 820 820 821 822 823 825 826 825 826 828 829 830 832 837 841 843 846 848 850 851 853 853 854 855 855 856 856 857 857 857 857 857 858 858 858
831 831 830 829 828 827 825 824 823 821 820 819 819 819 818 818 818 817 817 817 817 817 817 818 818 819 819 819 819 819 819 819 819 819 819 820 820 821 822 823 823 824 824 825 826 827 826 826 828 829 829 831 835 839 842 845 848 850 851 852 853 853 854 855 855 856 856 856 856 857 857 857 857 858
834 834 833 832 831 830 829 828 826 825 825 824 823 822 822 821 821 821 821 821 821 820 820 821 821 821 821 821 821 821 822 822 822 822 822 822 823 824 824 825 825 826 827 827 827 827 827 827 828 829 830 832 834 838 841 844 847 850 850 851 852 853 853 854 855 855 856 856 856 856 856 856 856 857
837 837 836 835 834 833 832 831 830 829 829 828 827 827 826 825 825 825 825 824 824 824 824 823 823 823 823 823 823 823 824 824 824 824 824 825 825 826 826 826 827 828 828 829 829 829 829 829 830 830 832 834 836 839 841 844 847 849 850 850 851 853 854 855 855 855 856 856 856 856 855 855 855 856
839 839 838 837 836 835 835 834 833 833 832 832 831 830 830 830 829 829 829 828 828 827 827 826 826 825 825 825 825 825 825 826 826 826 826 826 827 827 827 827 828 829 830 831 831 831 831 832 832 833 834 836 838 841 842 844 846 848 850 851 852 853 854 855 855 856 856 855 855 855 855 855 855 855
842 841 840 839 839 838 837 836 835 835 834 834 833 833 832 832 832 832 832 831 831 830 830 829 828 828 827 827 827 827 827 827 828 828 828 828 828 828 828 828 829 830 831 832 833 834 834 835 835 836 837 838 840 841 843 845 847 849 850 852 853 853 854 855 855 855 856 855 855 855 855 855 856 856
844 842 842 841 841 840 839 839 838 837 837 836 835 835 834 834 833 833 833 833 832 832 831 831 830 830 829 829 828 828 828 828 829 829 829 829 829 829 829 829 830 831 832 833 835 836 836 837 837 838 839 840 842 843 844 846 849 850 851 852 853 853 854 855 855 855 855 855 855 855 856 856 856 857
845 844 844 843 843 842 842 841 840 840 839 838 837 837 836 836 835 835 835 834 834 833 832 832 832 831 831 831 830 830 830 830 830 829 829 829 829 830 830 830 831 832 833 834 835 836 837 838 839 839 840 842 844 846 847 848 850 851 852 853 853 854 855 855 855 855 855 854 855 855 855 856 857 857
847 847 846 846 846 845 844 844 843 842 841 841 840 839 838 838 837 837 836 836 835 834 834 833 833 833 833 832 832 832 832 832 831 831 830 829 829 829 830 831 832 833 834 835 836 837 838 838 839 841 842 843 845 848 849 850 850 851 851 852 853 854 854 855 855 854 854 854 855 855 856 857 857 858
850 849 848 848 848 847 847 846 845 845 843 843 842 841 840 839 839 838 838 837 836 836 835 835 835 835 835 835 834 834 833 833 833 832 831 830 829 830 831 832 832 833 834 835 836 837 838 839 840 841 843 845 846 849 851 851 851 851 851 852 853 853 854 854 854 854 855 855 856 856 856 857 858 858
852 851 851 851 851 850 849 848 848 847 846 845 844 843 842 841 841 840 839 838 838 837 837 837 836 836 836 836 836 835 834 834 834 834 833 832 832 832 833 833 833 834 835 836 837 838 839 840 840 841 843 845 848 851 852 853 853 853 853 853 853 853 854 854 854 855 855 856 856 856 857 857 858 858
854 853 853 853 853 852 851 851 850 849 848 847 846 845 844 843 842 842 841 840 839 838 838 838 838 837 837 837 836 836 836 835 835 835 835 834 834 834 834 834 834 835 836 837 838 839 839 840 841 841 842 845 848 851 852 853 854 855 855 854 854 854 854 854 854 855 856 856 856 857 857 857 858 858
856 856 855 855 855 854 853 852 851 851 850 849 848 847 845 844 843 843 842 841 841 840 839 839 839 838 838 837 837 837 836 836 836 836 836 836 836 836 836 836 836 836 837 839 840 841 841 841 842 842 843 844 846 848 850 852 854 855 856 856 855 855 855 855 856 856 856 857 857 857 857 857 857 858
859 858 857 857 856 855 854 854 853 852 851 850 849 848 847 845 845 844 843 842 842 841 840 840 840 839 839 838 838 837 837 837 838 838 838 837 837 837 837 837 837 838 839 840 841 842 842 843 843 844 845 845 847 848 850 852 854 855 856 856 856 856 856 856 857 857 857 857 857 857 857 857 857 857
861 860 859 859 858 857 856 855 854 854 853 851 850 849 848 847 846 845 844 843 842 842 841 841 841 840 839 839 839 838 838 838 839 839 839 839 839 839 838 838 838 839 840 841 842 842 843 844 845 845 846 846 847 849 850 852 853 854 855 855 856 856 856 856 856 856 856 857 857 857 857 857 857 857
863 862 861 861 860 859 858 857 856 855 854 853 852 850 849 848 847 846 845 844 843 843 842 841 841 841 840 839 839 839 839 839 840 841 841 840 840 840 839 839 839 840 840 841 843 843 844 845 846 846 846 847 847 848 850 851 853 854 855 855 855 855 856 856 856 856 856 856 857 857 857 857 857 857
864 863 863 862 861 860 859 858 857 857 855 854 853 852 851 850 849 848 847 846 845 845 844 842 841 841 841 840 840 840 840 840 841 842 842 842 841 841 841 841 841 841 841 842 843 844 844 845 846 846 847 847 848 848 849 851 852 853 854 855 855 855 855 855 855 856 856 856 856 856 856 856 856 856
865 865 864 863 862 861 860 860 859 858 857 856 855 854 853 852 851 850 849 849 848 847 846 845 843 843 842 842 842 841 841 841 842 842 842 842 842 842 842 842 842 841 842 843 844 844 845 845 846 847 847 847 848 849 850 851 853 853 854 854 854 855 855 855 855 855 855 855 855 855 855 855 855 855
866 865 865 864 863 862 861 861 860 859 858 857 856 855 854 854 853 852 851 851 850 849 848 847 846 845 844 844 843 843 842 842 842 842 842 843 843 843 843 843 842 842 843 843 844 845 845 846 846 847 847 848 849 849 850 851 852 853 853 854 854 854 854 854 854 855 854 854 854 854 854 854 854 854
Wind_Speed
27 27 25 24 25 25 23 23 22 21 21 20 21 23 23 17 8 4 4 5 7 14 18 19 20 21 21 23 25 25 23 21 22 23 24 24 22 22 21 20 21 22 21 20 19 19 17 15 13 14 18 20 16 14 15 13 14 16 16 16 15 13 12 12 11 11 10 9 8 7 7 6 6 5
26 26 27 25 24 24 23 22 21 21 21 21 21 22 24 21 14 8 5 5 9 15 18 20 22 24 24 23 23 24 23 21 22 23 23 23 22 21 21 21 21 21 21 20 19 18 18 16 15 16 19 20 17 15 15 14 15 16 17 16 15 12 11 11 11 11 11 9 8 7 7 6 6 5
22 21 23 24 22 22 22 21 20 21 22 21 22 22 20 20 18 15 9 4 8 16 19 20 23 26 27 24 23 24 23 21 21 22 22 21 20 20 21 22 22 22 22 21 20 19 18 17 16 18 20 20 17 16 16 15 14 16 17 17 14 12 11 12 11 11 10 9 8 7 7 7 6 5
19 18 19 20 20 20 20 20 20 21 21 20 20 20 18 17 16 16 12 5 6 15 21 22 22 25 27 26 26 26 24 21 20 21 21 20 19 19 20 21 22 23 23 22 21 20 19 18 18 19 21 20 18 17 17 15 14 16 17 16 15 13 12 12 11 11 10 10 8 8 7 7 6 6
17 18 17 18 21 21 19 19 19 20 19 17 17 16 16 17 16 15 12 7 8 13 19 20 20 23 27 26 26 26 23 21 21 22 20 19 19 19 19 20 21 23 23 21 21 21 19 19 19 20 22 21 19 18 18 16 14 15 16 16 15 14 13 12 12 11 11 10 9 8 7 7 6 6
12 15 16 17 19 18 17 17 16 16 16 16 16 15 16 19 19 18 17 14 13 13 16 21 22 24 27 25 25 25 24 23 23 22 20 18 19 19 18 19 20 21 21 20 20 21 19 18 20 22 23 22 20 19 18 16 14 15 16 16 16 15 13 12 11 11 11 10 9 8 7 6 5 5
11 12 13 14 13 12 13 13 12 11 12 16 18 16 18 20 20 20 20 20 19 16 18 24 25 25 26 25 26 26 24 24 24 22 20 20 20 18 17 18 19 20 20 19 19 20 18 18 19 23 23 22 21 20 18 16 15 15 15 16 16 15 13 12 11 10 10 9 8 7 6 5 4 4
11 10 9 9 8 9 11 10 10 9 8 12 18 19 21 21 20 22 22 21 22 20 19 23 26 29 28 25 25 26 25 25 24 21 19 20 20 17 15 15 16 17 18 18 19 20 19 18 20 22 22 20 20 19 18 16 15 15 15 15 16 15 14 12 11 10 10 9 9 8 7 6 5 5
6 8 8 9 8 8 8 7 10 12 10 12 16 18 20 20 20 23 23 20 23 24 22 21 24 28 26 22 23 26 26 26 23 20 20 20 18 16 14 13 13 15 16 17 19 21 20 19 20 20 20 20 19 18 17 17 15 15 15 15 15 15 14 13 11 11 10 10 10 9 9 8 8 7
3 5 7 8 8 6 8 10 12 14 15 16 15 14 15 17 17 18 15 12 18 25 25 22 23 25 23 22 24 26 27 27 24 21 20 21 19 16 15 14 14 15 15 17 20 22 21 20 20 20 19 19 18 18 17 17 15 15 14 15 15 14 13 13 13 12 12 11 11 11 11 10 10 9
2 4 3 5 6 6 10 15 15 15 16 15 13 12 12 13 14 14 12 7 8 17 21 22 23 24 23 23 25 25 27 27 24 22 22 22 21 18 17 17 16 16 17 17 19 21 22 21 20 20 19 18 18 17 17 17 16 15 14 14 14 14 14 14 14 13 13 12 12 12 12 12 12 11
3 4 4 5 7 7 10 13 13 15 15 13 12 13 13 12 14 16 16 11 9 13 17 18 20 23 24 25 24 23 25 25 23 22 23 24 25 24 21 18 16 16 18 19 19 21 22 21 20 19 18 18 18 17 17 17 16 16 15 14 14 14 15 15 15 14 14 14 14 14 14 14 14 13
6 2 2 5 6 7 9 9 7 10 11 10 11 14 13 12 15 17 17 14 14 15 16 15 18 20 20 22 24 23 24 24 23 23 22 24 28 29 26 21 18 17 18 19 21 21 21 21 20 20 19 18 18 18 18 18 17 16 16 16 15 15 15 15 15 15 15 16 16 16 16 16 16 16
10 7 4 2 1 2 5 6 5 7 8 7 8 12 12 13 16 18 18 15 17 20 17 13 16 18 14 14 19 20 17 17 20 21 20 23 28 27 22 18 18 19 19 21 23 22 22 22 20 19 19 18 17 18 18 18 18 17 17 16 15 15 15 15 15 15 16 17 17 18 18 18 17 17
13 11 10 9 8 6 2 3 5 7 7 6 8 10 12 14 16 18 19 19 19 21 18 14 16 19 16 14 15 15 13 12 15 18 19 23 28 25 18 13 12 17 20 20 19 18 18 19 19 17 17 17 17 17 17 17 17 16 15 15 15 15 15 15 15 16 16 16 16 17 17 17 17 17
16 13 10 8 8 9 8 4 4 8 7 6 8 10 10 12 15 17 19 19 15 16 16 12 11 12 11 12 13 13 13 12 11 14 18 21 23 21 17 14 11 13 19 18 15 14 14 16 18 16 14 14 13 14 14 14 14 14 13 13 13 12 12 13 13 13 13 13 13 13 13 12 12 12
19 16 13 10 8 8 10 12 14 15 13 11 12 12 11 12 13 13 15 14 11 10 12 11 10 10 13 15 11 8 9 9 6 7 12 16 17 17 17 16 13 11 17 21 18 16 15 17 18 15 12 10 9 9 8 8 8 9 9 9 9 9 9 8 8 9 9 8 7 7 7 7 6 6
22 20 19 16 12 8 12 16 16 15 15 15 15 15 14 12 11 11 11 12 11 11 12 12 12 13 15 16 12 9 11 13 12 12 12 13 14 13 13 15 16 14 17 23 20 15 14 18 18 16 14 12 11 11 10 8 8 7 6 6 6 5 5 4 4 3 3 3 3 3 3 3 3 4
25 24 23 21 17 11 11 13 14 14 15 18 21 22 21 17 15 13 12 11 10 10 11 12 12 13 13 14 14 12 12 13 12 13 14 14 13 13 13 15 17 17 19 22 18 14 15 19 19 18 17 15 14 14 12 11 10 9 8 8 7 6 5 5 5 5 5 5 4 4 3 3 3 4
26 26 26 26 23 17 13 13 14 15 16 20 25 27 27 26 25 23 19 15 14 15 15 15 16 17 16 14 13 12 12 13 13 13 14 13 13 16 17 16 16 18 19 18 16 16 18 19 19 20 18 17 18 17 17 16 14 13 12 11 10 9 8 8 8 9 9 8 8 7 6 6 6 7
28 27 26 26 26 23 17 15 16 18 19 22 26 28 29 30 29 27 25 22 22 21 19 19 19 19 18 17 15 13 13 13 13 14 17 18 19 20 17 12 12 14 15 16 18 20 21 20 21 23 20 20 22 20 19 20 18 16 16 15 13 12 11 10 10 9 10 9 9 9 9 10 11 12
32 31 27 26 25 23 19 16 16 18 20 23 24 23 23 24 23 22 22 23 23 22 21 20 18 18 17 17 17 15 14 13 12 15 20 23 23 20 16 13 13 12 12 16 20 21 22 23 25 26 21 18 21 22 20 20 19 18 17 16 14 12 12 12 11 11 11 11 11 11 11 11 12 12
35 34 32 29 26 23 19 16 16 16 17 19 20 18 19 20 19 16 17 19 19 18 19 18 17 18 17 17 18 16 14 13 12 13 16 18 19 18 18 18 16 9 8 16 21 21 24 27 27 26 19 11 12 19 21 20 18 18 17 16 15 15 14 15 15 14 15 14 13 12 10 9 8 8
35 34 34 32 29 26 23 21 20 19 19 20 20 19 20 20 18 17 17 17 18 18 19 18 17 18 18 17 18 17 15 14 12 11 14 15 17 18 20 20 16 9 7 15 20 22 26 28 26 23 16 11 11 16 19 20 19 17 15 16 17 17 16 16 16 16 16 16 15 13 11 9 7 6
34 34 33 31 29 28 27 25 24 24 23 23 23 22 20 17 15 17 17 17 18 19 20 19 19 19 19 17 16 16 15 14 13 11 12 13 15 16 18 18 16 13 11 14 19 21 22 24 24 18 13 14 19 21 19 18 18 16 15 16 17 17 16 16 16 15 15 14 13 13 12 10 8 6
31 31 31 30 28 27 28 27 26 26 25 25 24 22 20 17 16 17 17 16 18 20 20 20 20 20 19 18 17 16 16 14 13 12 11 12 14 14 15 17 18 16 13 13 16 18 18 20 21 18 14 16 22 23 20 17 16 16 14 13 13 14 15 15 15 14 13 13 12 11 10 10 8 7
28 27 27 27 26 26 27 27 27 27 27 26 25 23 21 20 19 19 18 18 19 20 20 20 21 20 18 18 18 17 17 15 15 15 15 15 16 17 16 17 17 16 14 14 15 16 17 18 17 17 20 24 24 20 18 17 16 15 14 13 13 14 14 14 14 13 12 10 9 8 7 6 6 6
24 24 24 24 25 26 26 26 26 27 27 26 25 24 23 23 21 21 21 20 19 20 20 19 19 17 16 17 17 17 16 15 15 17 19 19 19 19 19 18 17 17 16 16 16 15 16 18 16 16 23 29 27 20 17 18 18 18 17 16 15 13 13 12 11 10 8 7 7 7 6 5 3 3
21 21 21 22 23 24 24 25 25 26 25 24 24 23 22 23 23 22 21 20 20 20 18 17 16 14 13 13 12 13 14 14 12 12 14 15 16 16 16 16 16 16 16 16 15 13 13 15 16 19 25 30 29 25 23 22 21 19 18 16 13 11 9 8 7 7 6 6 7 6 5 5 3 1
19 19 20 20 21 21 22 22 22 22 21 21 22 21 21 20 20 20 19 18 18 17 15 14 14 13 12 10 9 10 12 12 11 10 11 11 11 11 11 14 16 16 15 15 14 14 15 16 18 22 27 29 29 28 27 25 21 17 15 14 13 10 7 7 6 6 6 5 6 5 6 7 5 2
17 17 17 17 17 17 18 18 18 18 17 18 18 18 18 17 17 16 15 14 14 13 13 12 12 11 10 9 9 10 12 11 11 13 14 13 13 12 13 16 18 18 17 16 16 17 19 19 20 24 27 27 25 23 22 21 20 18 16 15 14 13 10 9 9 8 7 7 7 8 9 10 10 7
20 19 19 18 18 18 18 18 18 18 17 17 17 16 16 15 13 13 12 10 10 9 8 7 8 9 9 8 8 8 10 10 10 11 12 12 14 16 17 18 18 18 19 19 18 18 19 20 21 22 23 24 23 21 21 21 21 21 20 19 18 18 16 13 12 11 9 9 10 12 12 12 12 11
25 25 24 23 23 22 22 21 20 19 18 18 17 16 15 14 13 11 10 9 8 8 7 6 6 6 7 8 7 6 6 8 7 6 7 9 13 16 18 19 19 18 19 20 19 19 20 20 22 22 23 24 23 23 24 24 22 20 18 17 16 16 14 12 12 12 11 10 12 14 14 12 10 9
26 27 26 26 25 24 24 23 21 19 18 18 17 15 14 13 12 12 11 9 7 6 7 9 9 8 7 8 7 6 5 7 8 7 5 5 9 13 17 20 19 18 18 19 18 18 19 20 22 24 25 26 24 21 20 22 21 19 18 16 15 13 11 9 10 12 12 12 13 15 15 14 11 9
26 25 25 25 25 25 25 24 22 21 20 18 16 14 13 12 12 12 12 10 9 7 7 8 10 10 10 10 8 6 5 6 8 8 5 2 5 13 18 19 18 18 19 19 18 18 17 17 19 22 23 23 23 20 17 17 17 16 17 16 14 11 9 8 10 13 15 13 12 14 15 14 11 10
26 26 25 24 24 25 25 24 23 23 23 21 17 13 12 12 12 12 12 10 9 9 9 9 9 9 9 9 8 8 7 6 7 9 8 8 11 16 18 16 15 16 17 18 18 17 17 16 17 19 20 18 15 13 13 15 14 14 15 15 12 9 8 9 10 13 15 14 13 13 14 13 10 8
24 26 27 26 25 26 25 24 23 23 23 22 20 16 14 13 11 11 11 11 9 8 8 8 8 7 7 7 6 8 9 8 8 9 11 13 16 19 19 20 20 18 16 15 16 16 16 15 16 19 19 15 7 5 9 14 14 13 15 15 12 9 8 9 11 12 12 11 12 12 12 11 10 7
21 22 23 24 24 25 25 24 23 23 22 21 20 18 16 13 10 9 10 11 11 9 7 6 6 6 6 6 5 7 10 11 11 10 9 11 16 19 21 23 26 25 23 20 17 15 15 15 16 19 21 16 8 5 9 13 12 12 13 15 14 12 10 10 11 11 10 8 8 7 8 9 11 9
19 19 19 19 19 20 21 21 21 22 22 21 21 21 19 14 11 10 10 10 11 9 7 8 8 6 6 7 6 8 10 12 13 13 12 14 17 19 21 23 24 24 23 21 20 18 17 16 16 17 19 18 14 14 16 16 14 12 11 12 14 14 12 11 10 9 9 9 9 8 7 8 9 9
18 17 17 17 17 17 18 18 18 19 20 21 21 22 20 14 11 11 10 10 10 10 8 8 7 6 7 7 6 10 12 12 13 14 15 17 19 20 21 22 22 21 21 20 19 17 18 18 17 15 15 15 15 17 18 17 15 13 11 10 10 10 10 9 9 8 8 8 8 9 9 8 6 5
19 17 16 17 17 17 18 18 17 17 19 20 20 21 20 17 15 14 13 13 13 13 11 8 6 6 8 6 6 10 11 12 12 13 15 19 21 21 20 20 19 18 19 19 18 17 17 16 14 13 13 14 15 17 16 14 12 10 8 8 8 7 6 5 6 6 6 5 5 5 5 5 4 4
19 16 16 17 17 16 16 16 16 17 19 20 20 20 20 18 18 19 18 17 17 17 15 12 9 7 7 9 9 11 12 12 12 13 15 17 19 18 18 18 17 16 16 16 15 15 14 13 13 13 14 14 16 17 16 13 11 9 6 5 6 6 4 3 3 4 3 2 2 1 1 1 2 1
18 16 15 16 17 16 15 15 15 16 18 19 19 20 20 19 19 20 20 19 18 18 18 17 14 9 8 11 12 12 12 13 12 12 12 12 13 14 16 17 16 16 16 15 13 11 10 11 12 13 13 12 13 15 15 14 12 9 6 5 6 6 5 3 3 4 4 4 4 3 2 1 1 1
16 15 15 15 16 16 15 15 14 14 16 16 17 18 19 19 18 19 19 18 18 17 17 17 17 14 12 11 11 10 10 10 9 10 10 10 10 11 13 14 15 16 15 13 11 12 13 12 11 10 10 10 11 14 15 14 13 10 6 5 5 5 4 4 4 5 6 6 6 4 5 5 4 2
15 13 13 14 15 14 13 13 14 14 15 15 15 15 17 17 17 16 16 16 16 16 15 14 14 15 13 10 8 7 7 6 6 8 10 11 9 9 9 9 11 13 12 9 9 12 14 13 11 10 10 10 11 11 11 11 10 9 6 5 5 5 4 5 5 6 7 7 7 6 5 5 7 6
Wind_Direction
217 214 212 212 212 212 210 210 210 210 210 208 206 203 195 184 166 160 183 188 191 190 193 201 206 208 205 197 196 201 204 204 203 202 201 202 202 200 200 203 204 206 208 209 209 211 212 212 208 205 195 189 193 192 181 181 181 174 172 176 181 181 174 168 161 156 157 154 147 146 146 147 142 134
212 215 214 213 214 211 208 209 211 210 210 207 204 203 201 195 182 161 164 187 185 184 190 198 199 199 203 201 196 199 204 206 206 203 200 202 204 203 203 204 203 206 208 207 207 210 211 207 203 200 195 192 197 195 181 180 185 181 181 185 186 183 178 176 170 166 163 157 154 155 152 152 149 142
206 211 212 212 213 212 209 211 212 211 210 208 203 196 192 195 191 172 156 165 186 183 188 197 196 195 200 201 196 197 203 206 205 202 201 201 202 204 205 206 206 208 212 211 209 209 207 202 199 199 197 195 198 197 184 181 187 187 189 192 189 184 183 182 179 174 167 162 161 162 159 158 157 152
205 207 212 215 214 211 211 212 211 208 206 205 200 188 182 192 194 179 166 137 157 186 196 195 189 189 192 194 194 196 200 201 198 200 202 197 195 201 205 207 207 210 216 218 215 209 204 200 198 198 198 198 201 199 187 183 187 190 195 196 191 187 187 187 186 180 173 172 171 168 168 167 164 162
207 208 211 218 218 215 216 217 214 209 203 199 195 187 184 191 191 184 182 170 162 186 199 195 186 187 189 189 192 195 194 191 191 196 200 195 193 200 205 206 208 212 218 221 217 211 203 198 200 201 199 200 204 199 187 186 190 193 198 198 193 191 190 189 191 186 181 182 180 177 178 175 172 174
205 215 216 223 225 222 224 224 221 213 197 191 197 194 186 185 187 192 195 193 186 181 184 187 188 190 190 188 191 193 190 185 185 190 196 198 201 205 207 208 209 212 217 219 215 210 203 202 206 202 197 200 204 198 189 188 193 196 198 198 196 196 194 193 195 193 189 189 190 188 188 188 185 186
204 219 224 232 231 225 228 225 223 219 195 191 199 191 185 189 192 197 198 195 192 180 174 181 183 185 189 190 192 195 192 186 184 188 195 200 205 207 209 213 214 211 212 214 211 204 199 202 202 195 193 200 202 195 190 191 197 200 200 200 200 200 199 199 201 202 200 198 201 203 203 206 208 212
212 217 228 243 240 230 231 225 223 226 205 201 202 186 182 192 197 197 196 195 194 181 170 177 181 181 184 185 189 192 190 187 187 188 192 198 203 205 205 211 213 206 205 208 203 195 193 194 192 190 194 199 197 192 191 195 200 204 202 201 204 205 205 205 204 209 214 212 213 216 220 225 230 234
240 232 235 245 244 241 246 236 217 212 207 210 207 189 183 192 200 199 196 196 196 184 169 171 179 181 181 181 188 191 186 184 187 191 194 197 200 197 195 200 197 191 195 199 192 187 190 192 190 192 196 195 194 193 196 200 203 206 206 204 206 208 210 212 212 214 221 224 225 227 228 233 239 243
257 238 240 245 242 235 238 230 208 196 200 209 208 196 190 192 195 198 201 203 198 185 173 167 172 178 178 177 182 189 185 181 184 192 193 194 195 190 190 192 187 184 187 188 185 186 191 194 194 195 195 195 196 198 201 204 205 206 209 209 210 213 214 217 221 222 226 231 234 238 239 240 243 247
256 260 262 250 243 227 217 215 201 188 192 201 201 195 191 191 190 194 205 211 189 180 172 165 168 174 176 175 177 183 185 181 185 191 184 182 190 195 194 187 179 182 184 181 185 191 195 198 198 197 198 199 201 203 205 207 207 208 211 213 214 216 218 222 226 229 232 236 239 243 247 248 249 249
6 313 283 236 229 220 207 205 200 191 190 193 192 184 181 190 194 194 195 183 164 175 173 166 171 175 175 176 176 180 184 183 190 197 185 177 187 196 197 188 179 182 184 182 188 194 198 201 200 199 202 204 204 206 207 209 210 211 213 216 218 220 222 225 229 232 236 240 243 246 248 250 253 252
83 74 249 220 212 211 206 204 203 196 196 200 192 178 176 190 195 195 196 180 161 170 177 176 180 179 175 175 175 178 185 187 192 199 191 180 184 191 192 188 185 185 185 187 191 196 200 203 202 203 206 209 211 213 213 214 215 216 217 219 221 224 227 229 232 236 240 243 245 248 250 250 252 252
71 65 54 59 9 250 207 202 202 190 194 213 203 184 185 195 195 195 197 185 166 164 165 160 161 156 146 157 169 171 179 188 191 193 187 175 174 178 179 179 187 191 191 191 193 197 203 203 203 207 211 215 217 219 220 220 220 221 223 224 226 228 231 234 236 239 242 246 248 249 251 251 251 252
53 52 53 53 41 29 32 213 206 182 177 200 208 202 201 199 198 202 199 189 176 166 156 143 142 141 131 128 138 139 134 141 160 169 169 166 166 167 162 157 175 195 197 194 191 196 205 208 207 210 215 220 222 225 227 227 227 227 228 230 232 233 236 237 239 242 244 247 251 252 254 255 254 254
64 60 53 50 52 49 46 58 130 137 135 158 183 196 201 190 193 203 200 192 179 161 153 147 139 144 152 146 134 130 127 119 123 138 145 154 161 162 157 147 151 189 201 193 179 180 195 205 207 207 210 218 222 225 226 225 226 228 227 228 229 230 234 237 239 244 246 248 251 252 253 252 250 249
73 67 58 52 56 65 75 90 104 110 114 132 156 168 172 170 174 185 190 193 194 178 174 172 153 161 193 190 164 153 165 168 174 161 147 152 159 155 150 145 138 162 191 184 163 155 173 191 195 189 185 193 196 191 189 191 198 203 206 210 213 214 220 229 237 243 245 244 241 239 238 235 231 228
70 67 63 59 60 81 100 101 99 101 110 119 125 129 134 141 148 152 157 171 185 184 183 184 171 174 198 201 183 177 190 195 211 216 193 176 169 155 144 142 136 140 171 176 159 141 158 177 177 165 159 159 159 152 144 144 149 155 163 171 175 181 185 188 206 217 206 195 183 175 177 181 184 185
63 62 62 62 64 77 96 94 89 95 106 107 102 99 99 101 105 108 118 138 154 159 163 169 161 156 171 184 181 182 191 194 203 209 198 184 174 161 145 142 143 144 154 164 158 143 155 169 160 146 145 147 143 135 127 123 126 126 125 125 122 118 118 119 117 111 106 101 98 100 106 116 135 147
63 59 59 61 64 74 94 101 98 102 106 102 95 90 89 88 87 87 89 101 118 128 135 136 130 128 137 155 167 173 176 177 181 184 181 181 178 161 142 133 144 153 157 168 173 157 154 163 152 136 134 135 128 122 119 116 114 115 113 105 100 99 97 97 98 96 92 87 84 85 91 100 110 119
67 64 61 60 62 71 87 103 107 104 100 95 90 85 83 82 82 82 83 88 96 104 110 113 114 116 122 131 140 145 150 161 176 176 168 173 175 163 146 132 137 148 160 181 186 164 152 157 149 132 126 126 122 119 118 116 114 111 106 101 98 96 91 90 92 92 87 81 78 82 91 101 106 107
63 65 65 65 65 68 72 83 96 99 96 93 88 82 81 81 80 81 85 88 91 95 97 99 104 109 112 115 120 127 136 150 174 179 168 169 172 164 152 139 131 131 143 162 169 157 146 148 142 130 124 122 122 124 123 119 117 111 104 100 96 91 89 89 87 87 86 81 78 81 90 99 104 106
59 60 62 64 69 74 77 79 85 93 98 97 93 91 92 92 89 90 93 92 93 94 94 95 98 101 104 107 111 117 128 139 159 176 172 174 178 170 154 143 137 129 138 155 159 152 147 149 145 137 131 122 125 134 131 123 118 113 108 104 98 92 91 91 89 87 84 81 81 85 91 98 99 102
55 55 57 59 64 71 78 82 84 89 95 98 97 95 92 91 97 106 105 99 98 95 92 94 96 97 100 104 106 109 113 116 127 152 167 179 188 177 159 150 144 133 138 157 159 154 154 158 155 148 144 140 147 151 140 128 121 116 111 108 103 98 95 93 93 89 82 78 80 83 85 90 92 97
54 53 54 55 58 63 68 73 77 79 82 86 87 84 82 84 98 109 107 105 106 104 101 100 98 95 96 95 95 95 93 92 97 115 142 168 182 174 158 146 135 122 128 153 159 155 159 166 166 163 156 144 146 151 146 134 126 120 113 108 105 104 102 98 96 90 83 81 83 83 80 78 83 100
56 54 53 53 54 57 61 64 67 70 73 75 75 75 79 84 91 96 99 105 109 108 107 104 100 96 92 87 81 79 77 77 82 91 108 133 147 148 143 137 129 120 121 141 152 151 154 165 174 177 165 145 144 147 146 141 134 127 119 112 108 107 104 100 97 93 88 82 81 83 81 72 73 94
58 57 55 53 53 53 56 57 59 61 64 66 67 68 71 75 78 83 87 91 98 102 103 102 99 95 91 87 83 81 80 83 89 95 103 115 122 121 119 120 120 117 119 133 145 147 142 144 158 171 162 149 144 143 143 146 147 141 129 120 116 113 107 102 98 95 90 81 75 79 80 70 69 82
63 60 57 56 55 54 54 54 54 55 56 57 60 63 64 64 66 70 74 77 82 86 88 88 86 86 88 91 92 91 90 91 93 98 104 108 112 113 111 109 109 111 117 127 136 145 142 131 130 149 157 151 144 140 141 142 141 138 129 120 116 115 113 108 98 89 80 67 65 72 72 66 63 70
64 62 61 60 58 55 53 52 52 52 51 50 50 51 53 55 55 55 58 63 67 69 69 68 67 67 72 84 96 100 96 89 85 94 105 110 112 113 111 108 106 106 111 115 118 128 134 126 122 136 147 146 140 137 136 131 130 133 133 127 123 121 122 120 100 79 68 67 75 75 56 39 23 334
60 59 58 58 58 56 53 51 51 52 52 52 49 47 46 46 45 45 44 45 50 54 54 53 54 54 57 70 94 109 105 99 103 114 119 120 125 128 123 112 104 101 105 106 104 109 115 119 125 130 133 133 131 130 128 127 130 137 141 138 131 124 131 143 120 74 54 61 76 68 43 42 39 3
51 51 52 53 53 53 52 51 53 54 55 57 57 56 54 51 47 44 41 40 42 43 41 41 47 54 62 72 88 101 106 109 122 132 129 125 129 137 133 119 108 101 99 98 98 104 110 116 123 125 123 123 124 126 126 124 121 117 114 115 110 98 101 117 106 78 67 77 85 76 63 61 62 64
50 49 50 49 47 48 49 51 52 52 53 56 59 61 62 61 59 55 51 49 46 41 37 40 48 58 66 68 72 87 95 96 109 131 139 137 135 131 126 123 120 111 102 98 100 107 111 114 118 121 121 121 124 126 121 113 107 102 99 98 96 89 87 91 86 79 84 89 84 76 66 60 62 72
52 51 49 47 46 45 44 43 43 44 46 50 54 56 56 58 63 62 59 55 48 43 49 55 53 58 67 62 58 67 72 64 66 91 124 142 147 138 127 128 132 126 115 109 108 108 108 108 111 115 118 117 119 122 117 106 100 99 95 92 90 86 82 82 82 82 88 91 89 82 73 68 76 91
52 52 51 48 46 45 43 41 39 37 36 37 40 44 48 53 54 50 49 50 43 36 48 55 54 62 75 73 70 70 57 42 38 44 65 119 150 150 140 136 138 136 129 125 122 117 113 109 107 108 110 108 104 104 107 103 98 94 87 80 77 78 79 80 79 80 85 94 99 89 72 68 87 109
50 50 50 48 46 45 44 43 42 39 34 31 32 35 39 41 41 37 35 37 38 37 48 60 63 64 70 75 77 70 57 47 46 48 41 50 149 160 158 152 149 149 144 139 138 136 132 126 118 111 107 102 93 85 82 86 88 85 80 73 65 66 78 83 79 80 83 88 93 84 69 70 92 108
47 46 46 44 42 42 41 40 39 39 36 33 32 32 29 29 32 33 27 25 31 40 49 61 69 66 63 68 68 57 58 73 76 74 78 94 126 147 152 145 143 153 157 152 150 147 142 138 136 125 110 98 91 81 72 72 72 68 68 69 62 60 76 88 83 79 79 80 81 77 69 74 90 92
47 46 46 43 40 39 39 37 36 37 36 34 34 35 34 34 37 36 29 24 26 37 50 63 73 69 60 65 66 54 58 78 88 87 93 101 108 116 117 109 110 121 133 139 146 151 149 146 145 137 120 103 89 83 85 86 81 69 62 67 71 72 82 91 84 73 72 76 76 70 66 70 80 83
45 44 47 45 41 37 37 36 34 33 33 31 29 27 28 34 36 30 26 27 27 31 45 52 50 44 38 39 50 55 61 74 83 84 91 99 99 102 104 102 102 105 108 113 121 134 147 155 156 147 134 124 124 135 117 108 103 87 70 68 76 81 87 94 86 75 75 82 81 75 73 75 75 76
49 47 46 45 39 33 33 34 31 27 26 25 22 18 17 22 29 28 27 32 31 28 30 33 29 25 24 32 61 82 82 83 84 83 91 102 105 107 108 107 106 105 104 104 107 112 122 135 145 146 138 133 139 146 138 128 124 117 95 79 77 81 88 96 91 81 84 92 91 89 95 95 85 78
53 52 47 42 36 28 29 33 29 22 19 19 18 18 15 14 18 19 15 15 17 14 15 28 31 16 7 23 78 100 94 91 92 90 95 105 110 114 114 109 107 105 102 102 105 109 113 118 123 126 126 126 135 141 134 127 127 125 113 96 85 77 78 88 90 85 88 93 91 89 94 99 94 75
50 54 49 43 40 35 34 34 30 22 19 16 15 19 23 24 23 20 13 9 10 8 6 12 12 4 10 35 105 113 97 95 100 100 100 104 107 112 114 110 104 102 103 106 108 108 109 110 110 113 117 124 135 142 138 132 134 131 117 101 86 64 51 68 79 75 77 83 88 93 98 103 99 78
43 51 49 41 37 35 32 32 30 26 23 21 20 22 26 28 29 29 29 31 31 26 21 17 7 5 36 72 104 107 94 94 103 107 106 105 103 104 108 110 106 103 107 114 115 111 109 106 104 111 122 130 138 145 146 147 147 143 129 104 82 62 56 72 60 42 39 44 50 78 113 144 166 172
38 45 44 36 31 29 26 26 28 25 22 24 27 27 25 27 31 35 37 40 40 35 32 33 30 31 63 92 100 96 91 94 100 101 102 101 98 98 103 109 110 109 111 115 114 110 114 117 113 112 117 122 128 135 144 154 157 147 127 103 84 75 85 97 62 23 1 341 319 292 262 234 222 239
35 38 37 30 26 26 24 22 22 19 16 19 24 25 23 26 32 34 35 37 37 33 32 36 38 43 62 88 96 91 90 94 94 93 94 95 96 99 103 107 111 114 117 121 118 111 115 123 121 108 102 108 117 124 134 149 155 145 122 102 95 91 89 84 60 27 9 2 349 314 272 259 260 272
32 29 24 19 18 23 27 25 20 17 13 12 13 15 17 18 21 24 27 28 30 31 32 33 33 33 38 51 67 74 77 81 82 88 94 95 94 97 100 101 107 110 110 117 130 127 121 120 120 111 106 110 115 118 127 142 146 139 121 102 104 100 73 59 56 33 16 23 32 22 345 293 277 280